Location: St. Louis
(38.6270°N, 90.1994°W)
Time: 19:34:42
(UTC-06:00)

Vanguard 1 - Pass Details

Date: 04 December 2021
Orbit: 652 x 3830 km, 34.2° (Epoch: 21 January)

Event Time Altitude Azimuth Distance (km) Brightness Sun altitude
Rises 23:04:07 0° 233° (SW) 6,775 14.3 -70.9°
Enters shadow 23:07:12 - 230° (SW) 6,235 14.1 -71.2°
Exits shadow 23:48:36 15° 83° (E) 6,023 14.0 -73.8°
Drops below altitude 10° 23:50:36 10° 81° (E) 6,344 14.1 -73.8°
Sets 23:54:55 0° 79° (E) 7,077 14.5 -73.8°
